Location: *
(33.8649°S, 62.1526°E)
Time: 12:37:46
(UTC+00:00)

Cosmos 2333 Rocket - Pass Details

Date: 17 January 2021
Orbit: 838 x 863 km, 70.8° (Epoch: 02 March)

Event Time Altitude Azimuth Distance (km) Brightness Sun altitude
Rises 22:29:48 0° 197° (SSW) 3,449 5.8 -25.2°
Reaches altitude 10° 22:32:20 10° 192° (SSW) 2,503 5.1 -24.8°
Maximum altitude 22:37:59 57° 114° (ESE) 998 2.8 -24.1°
Drops below altitude 10° 22:43:32 10° 35° (NE) 2,459 4.5 -23.3°
Enters shadow 22:45:21 - 31° (NNE) 3,134 5.0 -23.1°
